Back to catalog

CZ-3C DEB

AliveGTO
NORAD 40174·DEBRIS·🇨🇳 China

Launched Oct 31, 2010 from Xichang Satellite Launch Center

Loading…

TLE

StaleSource: Space-Track

Epoch: Sep 7, 2026, 08:50 UTC

1 40174U 10057AC  26250.36806425 -.00000010  00000-0  27432-4 0  9992
2 40174  20.1323 273.4271 7084194 146.7582 356.7171  2.35043026102436

Track CZ-3C DEB in real time with AllMySat

Download on the App Store